This is the latest recevied weather packets stored in our database for station/object KC0RPY. If no packets are shown the sender has not sent any weather packets the latest 10 day(s).
| Time | Temp. | Humidity | Pressure | Rain* | Wind** | Luminosity | Snow |
|---|---|---|---|---|---|---|---|
| 1788644460 | 37.78° C | 40% | 1013.2 hPa | 0 mm | - | 494 W/m² | - |
| 1788644155 | 37.22° C | 40% | 1013.2 hPa | 0 mm | - | 538 W/m² | - |
| 1788643851 | 36.67° C | 42% | 1013.2 hPa | 0 mm | - | 200 W/m² | - |
| 1788643551 | 36.67° C | 42% | 1013.2 hPa | 0 mm | - | 152 W/m² | - |
| 1788643250 | 36.67° C | 42% | 1013.5 hPa | 0 mm | - | 178 W/m² | - |
| 1788642954 | 36.11° C | 42% | 1013.5 hPa | 0 mm | - | 150 W/m² | - |
| 1788642642 | 36.67° C | 42% | 1013.5 hPa | 0 mm | - | 538 W/m² | - |
| 1788642337 | 38.33° C | 40% | 1013.5 hPa | 0 mm | - | 109 W/m² | - |
| 1788642032 | 37.78° C | 39% | 1013.5 hPa | 0 mm | - | 591 W/m² | - |
| 1788641732 | 38.33° C | 40% | 1013.5 hPa | 0 mm | - | 582 W/m² | - |
| 1788641431 | 37.78° C | 40% | 1013.9 hPa | 0 mm | - | 595 W/m² | - |
| 1788641126 | 37.22° C | 42% | 1013.9 hPa | 0 mm | - | 621 W/m² | - |
| 1788640821 | 38.33° C | 40% | 1013.9 hPa | 0 mm | - | 623 W/m² | - |
| 1788640520 | 36.67° C | 41% | 1013.9 hPa | 0 mm | - | 471 W/m² | - |
| 1788640216 | 37.22° C | 42% | 1014.5 hPa | 0 mm | - | 614 W/m² | - |
| 1788639911 | 37.22° C | 41% | 1013.9 hPa | 0 mm | - | 551 W/m² | - |
| 1788639607 | 36.67° C | 41% | 1014.2 hPa | 0 mm | - | 652 W/m² | - |
| 1788639303 | 37.22° C | 40% | 1014.2 hPa | 0 mm | - | 135 W/m² | - |
| 1788639002 | 38.33° C | 38% | 1014.2 hPa | 0 mm | - | 655 W/m² | - |
| 1788638698 | 37.78° C | 40% | 1014.2 hPa | 0 mm | - | 669 W/m² | - |
| 1788638396 | 37.22° C | 41% | 1014.2 hPa | 0 mm | - | 681 W/m² | - |
| 1788638091 | 36.67° C | 43% | 1014.2 hPa | 0 mm | - | 733 W/m² | - |
| 1788637787 | 37.22° C | 43% | 1014.5 hPa | 0 mm | - | 147 W/m² | - |
| 1788637486 | 36.67° C | 42% | 1015 hPa | 0 mm | - | 768 W/m² | - |
| 1788637181 | 36.67° C | 44% | 1014.5 hPa | 0 mm | - | 174 W/m² | - |
* Rain latest hour (hover to see other rain measurements)
** Current wind speed in m/s (hover to see current wind gust speed)